Location: Milo
(50.5667°N, 112.8833°W)
Time: 21:40:49
(UTC+00:00)

N. Korean satellite - Visible Passes

Search period start: 02 December 2021 00:00
Search period end: 12 December 2021 00:00
Orbit: 447 x 495 km, 97.3° (Epoch: 02 December)

Date Brightness Start Highest point End Pass type
(mag) Time Alt. Az. Time Alt. Az. Time Alt. Az.
02 Dec 9.4 00:45:14 10° SW 00:47:59 21° W 00:50:42 10° NW visible
02 Dec 9.1 12:04:56 10° NE 12:07:31 20° E 12:10:04 10° SE visible
02 Dec 7.1 13:37:44 10° N 13:40:48 31° WNW 13:43:49 10° SW visible
03 Dec 8.0 00:15:57 10° S 00:19:20 42° W 00:22:41 10° NNW visible
03 Dec 6.2 13:09:00 10° N 13:12:23 69° WNW 13:15:44 10° SSW visible
04 Dec 7.2 12:40:31 10° NNE 12:43:52 52° E 12:47:09 10° S visible
04 Dec 8.2 14:14:50 10° NNW 14:16:40 14° WNW 14:18:31 10° W visible
05 Dec 9.6 00:53:19 10° SW 00:55:41 17° W 00:58:05 10° NW visible
05 Dec 8.8 12:12:22 10° NE 12:15:12 24° E 12:18:00 10° SSE visible
05 Dec 7.4 13:45:30 10° N 13:48:23 26° WNW 13:51:14 10° SW visible
06 Dec 8.4 00:23:45 10° SSW 00:26:59 34° W 00:30:12 10° NNW visible
06 Dec 9.8 11:45:02 10° ENE 11:46:26 12° E 11:47:48 10° ESE visible
06 Dec 6.4 13:16:38 10° N 13:19:58 55° WNW 13:23:16 10° SSW visible
07 Dec 6.7 12:48:03 10° NNE 12:51:26 65° ESE 12:54:48 10° S visible
07 Dec 8.3 14:22:51 10° NW 14:24:10 12° WNW 14:25:28 10° W visible
08 Dec 9.7 01:01:23 10° SW 01:03:20 14° W 01:05:15 10° WNW visible
08 Dec 8.4 12:19:46 10° NNE 12:22:47 29° E 12:25:47 10° SSE visible
08 Dec 7.6 13:53:11 10° NNW 13:55:52 22° WNW 13:58:32 10° WSW visible
09 Dec 8.8 00:31:31 10° SSW 00:34:34 28° W 00:37:36 10° NW visible
09 Dec 9.5 11:52:03 10° NE 11:54:00 14° E 11:55:57 10° SE visible
09 Dec 6.6 13:24:12 10° N 13:27:27 44° WNW 13:30:41 10° SW visible
10 Dec 7.1 00:02:27 10° S 00:05:54 60° W 00:09:19 10° NNW visible
10 Dec 7.5 12:55:30 10° NNE 13:00:16 34° S 13:02:18 10° S visible
11 Dec 9.9 01:09:36 10° WSW 01:10:53 12° W 01:12:08 10° WNW visible
11 Dec 8.6 12:27:06 10° NNE 12:32:04 20° SSE 12:33:25 10° SSE visible
11 Dec 8.2 14:00:48 10° NNW 14:06:11 - WSW 14:01:54 15° NW visible
